FENGYUN 1C DEB

Satellite information

Favourite Embed

Satellite Type and Status

DEBRISIN ORBIT

Key statistics

Satellite FENGYUN 1C DEB at a glance.

Uptime

9553

Days in orbit

Revolutions

≈ 14.2

Per day

Orbit

SSO

Sun Synchronous Orbit

Inclination

100.3

Latest

Satellite identification and parameters

Extended collection of information and parameters for FENGYUN 1C DEB.

Object identification

Identified? True

Debris? True

Object name: FENGYUN 1C DEB

International designator: 1999-025CJJ

Object number (NORAD): 31844

Object ID (CCSDS): 31844

Country: PEOPLES REPUBLIC OF CHINA (PRC)

Current information (Y/N): Y

RCS size: SMALL

Orbital parameters

Period: 101.48 minutes

Inclination: 100.2839 deg

SMA: 7206.887 km

Apoapsis: 904.419 km

Periapsis: 753.086 km

RAAN: 147.8824 deg

Eccentricy: 0.0104992

Argument of periapsis: 72.0766 deg

Mean anomaly: 289.1818 deg

Mean motion: 14.18995986 rev/day

Mean motion (dot): 0.00001496 rev/day2

B* drag term: 0.00070414 1/REarth

Two-line elements (TLE)

Creation date: July 4, 2025, 6:39 p.m.

Reference frame: TEME

Reference center: EARTH

Epoch: July 4, 2025, 3:54 a.m. UTC

TLE line 0: 0 FENGYUN 1C DEB

TLE line 1: 1 31844U 99025CJJ 25185.16299922 .00001496 00000-0 70414-3 0 9995

TLE line 2: 2 31844 100.2839 147.8824 0104992 72.0766 289.1818 14.18995986930405

Live tracking on map

Real-time ground track for satellite FENGYUN 1C DEB.

In-orbit conjunctions

A list of the most updated potential collisions computed for object FENGYUN 1C DEB.

Target Orbit TCA Probability of collision Miss distance Type
NOAA 16 DEB SSO 2025-03-13 23:06:48 0.0002776929 112.0 (m) DEBRIS
NOAA 16 DEB SSO 2024-11-14 13:37:37 0.0004790699 409.0 (m) DEBRIS
FENGYUN 1C DEB SSO 2024-09-26 20:59:31 0.0005655133 116.0 (m) DEBRIS
CZ-6A DEB LEO 2024-09-22 21:10:24 0.0001143128 567.0 (m) DEBRIS

Associated space launch

Chinese polar orbiting meteorological satellite

FENGYUN 1C DEB was lifted into orbit during the mission ‘Long March 4B | Feng Yun 1C’, on board a Long March 4B space rocket.

The launch took place on May 10, 1999, 1:33 a.m. from Launch Complex 7.

For more information about the launch, click the button.

Launch to space Long March 4B | Feng Yun 1C
Long March 4B | Feng Yun 1C

Agency: N/A

Status: Launch Successful

Launch date: May 10, 1999, 1:33 a.m. UTC

Rocket: Long March 4B

Launch pad: Launch Complex 7

Location: Taiyuan Satellite Launch Center, People's Republic of China

...

Latest news about this satellite

There are no fresh news available about this satellite. Check back as we update our databases every day.


Newsletter sign-up

Weekly statistics, charts and insights to help you stay on top of the space industry.